Previsão horária em Abadzekhskaya

Hoje, 12 Abril, Segunda-feira

Tempo Temperatura Precipitação Vento Pressão Humidade
00:00 +7°C° 0 mm 1 m/s 713 mmHg 95%
01:00 +7°C° 0 mm 1 m/s 713 mmHg 96%
02:00 +7°C° 0 mm 1 m/s 713 mmHg 96%
03:00 +7°C° 0 mm 1 m/s 714 mmHg 97%
04:00 +7°C° 0.4 mm 1 m/s 714 mmHg 97%
05:00 +7°C° 0.4 mm 1 m/s 714 mmHg 97%
06:00 +6°C° 0.4 mm 0 m/s 714 mmHg 97%
07:00 +6°C° 0.4 mm 0 m/s 714 mmHg 97%
08:00 +6°C° 0.4 mm 0 m/s 715 mmHg 96%
09:00 +6°C° 0.4 mm 0 m/s 715 mmHg 96%
10:00 +7°C° 1 mm 0 m/s 715 mmHg 95%
11:00 +7°C° 1 mm 0 m/s 715 mmHg 95%
12:00 +7°C° 1 mm 0 m/s 715 mmHg 94%
13:00 +7°C° 0.2 mm 0 m/s 715 mmHg 93%
14:00 +8°C° 0.2 mm 0 m/s 716 mmHg 91%
15:00 +8°C° 0.2 mm 0 m/s 716 mmHg 89%
16:00 +8°C° 0.2 mm 0 m/s 715 mmHg 93%
17:00 +8°C° 0.2 mm 0 m/s 715 mmHg 94%
18:00 +8°C° 0.2 mm 0 m/s 716 mmHg 95%
19:00 +7°C° 0.1 mm 0 m/s 716 mmHg 95%
20:00 +7°C° 0.1 mm 0 m/s 716 mmHg 95%
21:00 +7°C° 0.1 mm 0 m/s 716 mmHg 95%
22:00 +7°C° 0.2 mm 0 m/s 716 mmHg 96%
23:00 +7°C° 0.2 mm 0 m/s 716 mmHg 97%

Amanhã, 13 Abril, Terça-feira

Tempo Temperatura Precipitação Vento Pressão Humidade
00:00 +7°C° 0.2 mm 0 m/s 716 mmHg 97%
01:00 +6°C° 0.8 mm 0 m/s 716 mmHg 98%
02:00 +6°C° 0.8 mm 0 m/s 716 mmHg 98%
03:00 +6°C° 0.8 mm 0 m/s 716 mmHg 98%
04:00 +6°C° 0.4 mm 0 m/s 716 mmHg 98%
05:00 +6°C° 0.4 mm 0 m/s 716 mmHg 98%
06:00 +7°C° 0.4 mm 1 m/s 716 mmHg 98%
07:00 +7°C° 0.2 mm 1 m/s 716 mmHg 98%
08:00 +7°C° 0.2 mm 1 m/s 716 mmHg 97%
09:00 +7°C° 0.2 mm 1 m/s 716 mmHg 97%
10:00 +8°C° 0 mm 1 m/s 716 mmHg 94%
11:00 +9°C° 0 mm 1 m/s 716 mmHg 91%
12:00 +9°C° 0 mm 1 m/s 716 mmHg 88%
13:00 +10°C° 0 mm 1 m/s 716 mmHg 87%
14:00 +10°C° 0 mm 1 m/s 716 mmHg 86%
15:00 +10°C° 0 mm 1 m/s 715 mmHg 85%
16:00 +10°C° 0 mm 1 m/s 715 mmHg 86%
17:00 +10°C° 0 mm 1 m/s 715 mmHg 86%
18:00 +10°C° 0 mm 1 m/s 715 mmHg 86%
19:00 +9°C° 0 mm 1 m/s 715 mmHg 88%
20:00 +9°C° 0 mm 1 m/s 714 mmHg 90%
21:00 +8°C° 0 mm 1 m/s 714 mmHg 92%
22:00 +8°C° 0 mm 1 m/s 714 mmHg 93%
23:00 +8°C° 0 mm 1 m/s 714 mmHg 94%

Depois de amanhã, 14 Abril, Quarta-feira

Tempo Temperatura Precipitação Vento Pressão Humidade
00:00 +7°C° 0 mm 0 m/s 713 mmHg 95%
01:00 +7°C° 0.2 mm 0 m/s 713 mmHg 95%
02:00 +7°C° 0.2 mm 0 m/s 713 mmHg 96%
03:00 +7°C° 0.2 mm 0 m/s 713 mmHg 96%
04:00 +7°C° 0.1 mm 0 m/s 713 mmHg 96%
05:00 +8°C° 0.1 mm 1 m/s 713 mmHg 96%
06:00 +8°C° 0.1 mm 1 m/s 713 mmHg 96%
07:00 +8°C° 0 mm 1 m/s 713 mmHg 92%
08:00 +9°C° 0 mm 1 m/s 713 mmHg 89%
09:00 +10°C° 0 mm 1 m/s 713 mmHg 85%
10:00 +11°C° 0 mm 1 m/s 713 mmHg 83%
11:00 +10°C° 0 mm 2 m/s 713 mmHg 81%
12:00 +10°C° 0 mm 2 m/s 713 mmHg 79%
13:00 +12°C° 0 mm 2 m/s 713 mmHg 77%
14:00 +12°C° 0 mm 2 m/s 713 mmHg 76%
15:00 +12°C° 0 mm 2 m/s 713 mmHg 74%
16:00 +12°C° 0 mm 2 m/s 713 mmHg 78%
17:00 +11°C° 0 mm 1 m/s 713 mmHg 82%
18:00 +11°C° 0 mm 1 m/s 713 mmHg 85%
19:00 +10°C° 0 mm 1 m/s 713 mmHg 88%
20:00 +9°C° 0 mm 1 m/s 713 mmHg 91%
21:00 +8°C° 0 mm 1 m/s 713 mmHg 94%
22:00 +8°C° 0 mm 1 m/s 713 mmHg 93%
23:00 +7°C° 0 mm 1 m/s 712 mmHg 93%

15 Abril, Quinta-feira

Tempo Temperatura Precipitação Vento Pressão Humidade
00:00 +7°C° 0 mm 1 m/s 712 mmHg 93%
01:00 +7°C° 0 mm 1 m/s 712 mmHg 91%
02:00 +6°C° 0 mm 1 m/s 712 mmHg 89%
03:00 +6°C° 0 mm 1 m/s 712 mmHg 87%
04:00 +6°C° 0 mm 1 m/s 711 mmHg 85%
05:00 +5°C° 0 mm 2 m/s 711 mmHg 83%
06:00 +5°C° 0 mm 2 m/s 711 mmHg 82%
07:00 +9°C° 0 mm 1 m/s 711 mmHg 73%
08:00 +11°C° 0 mm 1 m/s 711 mmHg 64%
09:00 +14°C° 0 mm 1 m/s 711 mmHg 56%
10:00 +15°C° 0 mm 1 m/s 711 mmHg 51%
11:00 +17°C° 0 mm 2 m/s 711 mmHg 47%
12:00 +18°C° 0 mm 2 m/s 711 mmHg 43%
13:00 +16°C° 0.3 mm 2 m/s 711 mmHg 54%
14:00 +15°C° 0.3 mm 2 m/s 711 mmHg 66%
15:00 +13°C° 0.3 mm 2 m/s 712 mmHg 78%
16:00 +13°C° 0.1 mm 2 m/s 712 mmHg 80%
17:00 +13°C° 0.1 mm 1 m/s 711 mmHg 81%
18:00 +13°C° 0.1 mm 1 m/s 711 mmHg 83%
19:00 +12°C° 0 mm 1 m/s 711 mmHg 86%
20:00 +10°C° 0 mm 1 m/s 711 mmHg 88%
21:00 +9°C° 0 mm 1 m/s 711 mmHg 91%
22:00 +9°C° 0 mm 1 m/s 711 mmHg 91%
23:00 +9°C° 0 mm 1 m/s 711 mmHg 90%

16 Abril, Sexta-feira

Tempo Temperatura Precipitação Vento Pressão Humidade
00:00 +8°C° 0 mm 1 m/s 711 mmHg 90%
01:00 +8°C° 0 mm 1 m/s 711 mmHg 89%
02:00 +7°C° 0 mm 1 m/s 711 mmHg 89%
03:00 +7°C° 0 mm 1 m/s 711 mmHg 89%
04:00 +7°C° 0 mm 1 m/s 711 mmHg 89%
05:00 +7°C° 0 mm 1 m/s 712 mmHg 90%
06:00 +7°C° 0 mm 1 m/s 712 mmHg 90%
07:00 +9°C° 0 mm 1 m/s 712 mmHg 83%
08:00 +11°C° 0 mm 1 m/s 712 mmHg 77%
09:00 +12°C° 0 mm 0 m/s 712 mmHg 70%
10:00 +13°C° 0.3 mm 1 m/s 712 mmHg 70%
11:00 +14°C° 0.3 mm 1 m/s 712 mmHg 70%
12:00 +15°C° 0.3 mm 2 m/s 712 mmHg 70%
13:00 +13°C° 1.3 mm 2 m/s 712 mmHg 77%
14:00 +12°C° 1.3 mm 2 m/s 712 mmHg 84%
15:00 +10°C° 1.3 mm 2 m/s 711 mmHg 91%
16:00 +9°C° 1.7 mm 2 m/s 712 mmHg 93%
17:00 +8°C° 1.7 mm 2 m/s 712 mmHg 95%
18:00 +9°C° 1.7 mm 1 m/s 713 mmHg 97%
19:00 +8°C° 0.3 mm 1 m/s 712 mmHg 97%
20:00 +8°C° 0.3 mm 1 m/s 712 mmHg 97%
21:00 +8°C° 0.3 mm 1 m/s 712 mmHg 97%
22:00 +8°C° 2 mm 1 m/s 712 mmHg 98%
23:00 +7°C° 2 mm 1 m/s 712 mmHg 98%

17 Abril, Sábado

Tempo Temperatura Precipitação Vento Pressão Humidade
00:00 +7°C° 2 mm 1 m/s 711 mmHg 98%
01:00 +7°C° 3.6 mm 1 m/s 712 mmHg 98%
02:00 +6°C° 3.6 mm 1 m/s 712 mmHg 97%
03:00 +5°C° 3.6 mm 2 m/s 712 mmHg 97%
04:00 +5°C° 1.2 mm 2 m/s 713 mmHg 96%
05:00 +6°C° 1.2 mm 1 m/s 713 mmHg 96%
06:00 +6°C° 1.2 mm 1 m/s 713 mmHg 96%
07:00 +6°C° 0.2 mm 1 m/s 713 mmHg 93%
08:00 +7°C° 0.2 mm 1 m/s 714 mmHg 89%
09:00 +8°C° 0.2 mm 1 m/s 714 mmHg 86%
10:00 +8°C° 0.1 mm 1 m/s 714 mmHg 85%
11:00 +9°C° 0.1 mm 1 m/s 714 mmHg 84%
12:00 +9°C° 0.1 mm 1 m/s 714 mmHg 83%
13:00 +10°C° 0.2 mm 1 m/s 714 mmHg 80%
14:00 +10°C° 0.2 mm 1 m/s 714 mmHg 78%
15:00 +11°C° 0.2 mm 1 m/s 714 mmHg 76%
16:00 +10°C° 0.1 mm 1 m/s 715 mmHg 78%
17:00 +9°C° 0.1 mm 1 m/s 715 mmHg 80%
18:00 +9°C° 0.1 mm 1 m/s 715 mmHg 82%
19:00 +8°C° 0 mm 1 m/s 715 mmHg 83%
20:00 +7°C° 0 mm 1 m/s 715 mmHg 84%
21:00 +6°C° 0 mm 0 m/s 715 mmHg 85%
22:00 +5°C° 0 mm 0 m/s 715 mmHg 86%
23:00 +6°C° 0 mm 1 m/s 715 mmHg 88%
Mostrar mais